| time (UTC) | temp F | wind direction | speed MPH | gust MPH | rain 1hr in | rain 24hr in | rain mn in | humidity % | barometer mb |
| 20260506230515 | 63 | 0.0 | 0.0 | 0.00 | 0.00 | 0.00 | 26 | 1017.8 | |
| 20260506225536 | 62 | 0.0 | 0.0 | 0.00 | 0.00 | 0.00 | 28 | 1017.9 | |
| 20260506224536 | 63 | 0.0 | 0.0 | 0.00 | 0.00 | 0.00 | 28 | 1017.9 | |
| 20260506223536 | 62 | 0.0 | 0.0 | 0.00 | 0.00 | 0.00 | 27 | 1018.0 | |
| 20260506222516 | 63 | 0.0 | 0.0 | 0.00 | 0.00 | 0.00 | 26 | 1018.2 | |
| 20260506221516 | 63 | 0.0 | 0.0 | 0.00 | 0.00 | 0.00 | 26 | 1018.1 | |
| 20260506220515 | 63 | 0.0 | 0.0 | 0.00 | 0.00 | 0.00 | 27 | 1018.4 | |
| 20260506215516 | 62 | 0.0 | 0.0 | 0.00 | 0.00 | 0.00 | 28 | 1018.3 | |
| 20260506214515 | 62 | 0.0 | 0.0 | 0.00 | 0.00 | 0.00 | 28 | 1018.4 | |
| 20260506213537 | 62 | 0.0 | 0.0 | 0.00 | 0.00 | 0.00 | 28 | 1018.6 | |
| 20260506212536 | 61 | 0.0 | 0.0 | 0.00 | 0.00 | 0.00 | 29 | 1018.7 | |
| 20260506211535 | 62 | 0.0 | 0.0 | 0.00 | 0.00 | 0.00 | 28 | 1018.9 | |
| 20260506210515 | 61 | 0.0 | 0.0 | 0.00 | 0.00 | 0.00 | 30 | 1019.0 | |
| 20260506205516 | 61 | 0.0 | 0.0 | 0.00 | 0.00 | 0.00 | 30 | 1019.2 | |
| 20260506204515 | 61 | 0.0 | 0.0 | 0.00 | 0.00 | 0.00 | 29 | 1019.2 | |
| 20260506203535 | 61 | 0.0 | 0.0 | 0.00 | 0.00 | 0.00 | 30 | 1019.4 | |
| 20260506202515 | 60 | 0.0 | 0.0 | 0.00 | 0.00 | 0.00 | 31 | 1019.4 | |
| 20260506201535 | 60 | 0.0 | 0.0 | 0.00 | 0.00 | 0.00 | 31 | 1019.5 | |
| 20260506200535 | 59 | 0.0 | 0.0 | 0.00 | 0.00 | 0.00 | 31 | 1019.6 | |
| 20260506195515 | 59 | 0.0 | 0.0 | 0.00 | 0.00 | 0.00 | 32 | 1019.6 | |
| 20260506194515 | 61 | 0.0 | 0.0 | 0.00 | 0.00 | 0.00 | 31 | 1019.8 | |
| 20260506193516 | 59 | 0.0 | 0.0 | 0.00 | 0.00 | 0.00 | 33 | 1019.8 | |
| 20260506192515 | 59 | 0.0 | 0.0 | 0.00 | 0.00 | 0.00 | 31 | 1019.9 | |
| 20260506191515 | 61 | 0.0 | 0.0 | 0.00 | 0.00 | 0.00 | 33 | 1019.9 | |
| 20260506190518 | 59 | 0.0 | 0.0 | 0.00 | 0.00 | 0.00 | 32 | 1019.8 | |
| 20260506185517 | 59 | 0.0 | 0.0 | 0.00 | 0.00 | 0.00 | 33 | 1020.0 | |
| 20260506184538 | 58 | 0.0 | 0.0 | 0.00 | 0.00 | 0.00 | 32 | 1020.2 | |
| 20260506183517 | 58 | 0.0 | 0.0 | 0.00 | 0.00 | 0.00 | 34 | 1020.2 | |
| 20260506182517 | 57 | 0.0 | 0.0 | 0.00 | 0.00 | 0.00 | 36 | 1020.3 | |
| 20260506181517 | 56 | 0.0 | 0.0 | 0.00 | 0.00 | 0.00 | 35 | 1020.2 | |
| 20260506180517 | 58 | 0.0 | 0.0 | 0.00 | 0.00 | 0.00 | 37 | 1020.4 | |
| 20260506175517 | 56 | 0.0 | 0.0 | 0.00 | 0.00 | 0.00 | 38 | 1020.7 | |
| 20260506174518 | 57 | 0.0 | 0.0 | 0.00 | 0.00 | 0.00 | 36 | 1020.6 | |
| 20260506173517 | 58 | 0.0 | 0.0 | 0.00 | 0.00 | 0.00 | 34 | 1020.9 | |
| 20260506172517 | 57 | 0.0 | 0.0 | 0.00 | 0.00 | 0.00 | 39 | 1021.1 | |
| 20260506171517 | 55 | 0.0 | 0.0 | 0.00 | 0.00 | 0.00 | 38 | 1021.1 | |
| 20260506170516 | 55 | 0.0 | 0.0 | 0.00 | 0.00 | 0.00 | 37 | 1021.2 | |
| 20260506165517 | 55 | 0.0 | 0.0 | 0.00 | 0.00 | 0.00 | 37 | 1021.2 | |
| 20260506164537 | 55 | 0.0 | 0.0 | 0.00 | 0.00 | 0.00 | 36 | 1021.3 | |
| 20260506163517 | 54 | 0.0 | 0.0 | 0.00 | 0.00 | 0.00 | 40 | 1021.2 | |
| 20260506162517 | 55 | 0.0 | 0.0 | 0.00 | 0.00 | 0.00 | 39 | 1021.3 | |
| 20260506161538 | 54 | 0.0 | 0.0 | 0.00 | 0.00 | 0.00 | 39 | 1021.1 | |
| 20260506160517 | 54 | 0.0 | 0.0 | 0.00 | 0.00 | 0.00 | 40 | 1021.1 | |
| 20260506155557 | 55 | 0.0 | 0.0 | 0.00 | 0.00 | 0.00 | 39 | 1021.2 | |
| 20260506154517 | 55 | 0.0 | 0.0 | 0.00 | 0.00 | 0.00 | 40 | 1021.1 | |
| 20260506153517 | 54 | 0.0 | 0.0 | 0.00 | 0.00 | 0.00 | 39 | 1021.1 | |
| 20260506152517 | 54 | 0.0 | 0.0 | 0.00 | 0.00 | 0.00 | 39 | 1021.1 | |
| 20260506151517 | 53 | 0.0 | 0.0 | 0.00 | 0.00 | 0.00 | 39 | 1021.1 | |
| 20260506150517 | 53 | 0.0 | 0.0 | 0.00 | 0.00 | 0.00 | 41 | 1021.2 | |
| 20260506145537 | 53 | 0.0 | 0.0 | 0.00 | 0.00 | 0.00 | 41 | 1021.2 | |
| 20260506144537 | 52 | 0.0 | 0.0 | 0.00 | 0.00 | 0.00 | 44 | 1021.1 | |
| 20260506143537 | 51 | 0.0 | 0.0 | 0.00 | 0.00 | 0.00 | 47 | 1021.2 | |
| 20260506142518 | 50 | 0.0 | 0.0 | 0.00 | 0.00 | 0.00 | 47 | 1021.1 | |
| 20260506141517 | 50 | 0.0 | 0.0 | 0.00 | 0.00 | 0.00 | 49 | 1021.0 | |
| 20260506140517 | 49 | 0.0 | 0.0 | 0.00 | 0.00 | 0.00 | 52 | 1020.9 | |
| 20260506135517 | 48 | 0.0 | 0.0 | 0.00 | 0.00 | 0.00 | 54 | 1020.8 | |
| 20260506134637 | 47 | 0.0 | 0.0 | 0.00 | 0.00 | 0.00 | 55 | 1020.6 | |
| 20260506133517 | 46 | 0.0 | 0.0 | 0.00 | 0.00 | 0.00 | 56 | 1020.6 | |
| 20260506132517 | 45 | 0.0 | 0.0 | 0.00 | 0.00 | 0.00 | 56 | 1020.4 | |
| 20260506131517 | 44 | 0.0 | 0.0 | 0.00 | 0.00 | 0.00 | 57 | 1020.2 | |
| 20260506130516 | 44 | 0.0 | 0.0 | 0.00 | 0.00 | 0.00 | 59 | 1020.1 | |
| 20260506125517 | 43 | 0.0 | 0.0 | 0.00 | 0.00 | 0.00 | 59 | 1020.1 | |
| 20260506124537 | 43 | 0.0 | 0.0 | 0.00 | 0.00 | 0.00 | 60 | 1019.9 | |
| 20260506123517 | 43 | 0.0 | 0.0 | 0.00 | 0.00 | 0.00 | 60 | 1019.5 | |
| 20260506122517 | 42 | 0.0 | 0.0 | 0.00 | 0.00 | 0.00 | 62 | 1019.4 | |
| 20260506121517 | 41 | 0.0 | 0.0 | 0.00 | 0.00 | 0.00 | 63 | 1019.2 | |
| 20260506120516 | 41 | 0.0 | 0.0 | 0.00 | 0.00 | 0.00 | 63 | 1019.2 | |
| 20260506115516 | 41 | 0.0 | 0.0 | 0.00 | 0.00 | 0.00 | 62 | 1019.1 | |
| 20260506114537 | 41 | 0.0 | 0.0 | 0.00 | 0.00 | 0.00 | 61 | 1018.9 | |
| 20260506113516 | 41 | 0.0 | 0.0 | 0.00 | 0.00 | 0.00 | 60 | 1018.8 | |
| 20260506112517 | 41 | 0.0 | 0.0 | 0.00 | 0.00 | 0.00 | 60 | 1018.8 | |
| 20260506111516 | 42 | 0.0 | 0.0 | 0.00 | 0.00 | 0.00 | 58 | 1018.7 | |
| 20260506110516 | 42 | 0.0 | 0.0 | 0.00 | 0.00 | 0.00 | 58 | 1018.7 | |
| 20260506105517 | 42 | 0.0 | 0.0 | 0.00 | 0.00 | 0.00 | 57 | 1018.8 | |
| 20260506104516 | 43 | 0.0 | 0.0 | 0.00 | 0.00 | 0.00 | 56 | 1018.7 | |
| 20260506103637 | 43 | 0.0 | 0.0 | 0.00 | 0.00 | 0.00 | 55 | 1018.8 | |
| 20260506102516 | 43 | 0.0 | 0.0 | 0.00 | 0.00 | 0.00 | 55 | 1018.7 | |
| 20260506101516 | 44 | 0.0 | 0.0 | 0.00 | 0.00 | 0.00 | 54 | 1018.7 | |
| 20260506100516 | 44 | 0.0 | 0.0 | 0.00 | 0.00 | 0.00 | 53 | 1018.5 | |
| 20260506095516 | 44 | 0.0 | 0.0 | 0.00 | 0.00 | 0.00 | 52 | 1018.4 | |
| 20260506094516 | 45 | 0.0 | 0.0 | 0.00 | 0.00 | 0.00 | 51 | 1018.3 | |
| 20260506093516 | 45 | 0.0 | 0.0 | 0.00 | 0.00 | 0.00 | 50 | 1018.3 | |
| 20260506092516 | 46 | 0.0 | 0.0 | 0.00 | 0.00 | 0.00 | 49 | 1018.2 | |
| 20260506091557 | 46 | 0.0 | 0.0 | 0.00 | 0.00 | 0.00 | 49 | 1018.1 | |
| 20260506090516 | 46 | 0.0 | 0.0 | 0.00 | 0.00 | 0.00 | 48 | 1018.1 | |
| 20260506085516 | 46 | 0.0 | 0.0 | 0.00 | 0.00 | 0.00 | 47 | 1017.9 | |
| 20260506084516 | 47 | 0.0 | 0.0 | 0.00 | 0.00 | 0.00 | 46 | 1018.0 | |
| 20260506083516 | 47 | 0.0 | 0.0 | 0.00 | 0.00 | 0.00 | 46 | 1017.9 | |
| 20260506082516 | 47 | 0.0 | 0.0 | 0.00 | 0.00 | 0.00 | 46 | 1017.8 | |
| 20260506081516 | 47 | 0.0 | 0.0 | 0.00 | 0.00 | 0.00 | 46 | 1017.7 | |
| 20260506080516 | 47 | 0.0 | 0.0 | 0.00 | 0.00 | 0.00 | 46 | 1017.7 | |
| 20260506073517 | 48 | 0.0 | 0.0 | 0.00 | 0.00 | 0.00 | 44 | 1017.4 | |
| 20260506072516 | 48 | 0.0 | 0.0 | 0.00 | 0.00 | 0.00 | 44 | 1017.5 | |
| 20260506071516 | 48 | 0.0 | 0.0 | 0.00 | 0.00 | 0.00 | 44 | 1017.5 | |
| 20260506070516 | 48 | 0.0 | 0.0 | 0.00 | 0.00 | 0.00 | 44 | 1017.6 | |
| 20260506062516 | 49 | 0.0 | 0.0 | 0.00 | 0.00 | 0.00 | 42 | 1017.6 | |
| 20260506061516 | 49 | 0.0 | 0.0 | 0.00 | 0.00 | 0.00 | 42 | 1017.6 | |
| 20260506060516 | 49 | 0.0 | 0.0 | 0.00 | 0.00 | 0.00 | 42 | 1017.4 | |
| 20260506050616 | 51 | 0.0 | 0.0 | 0.00 | 0.00 | 0.00 | 38 | 1016.7 | |
| 20260506044518 | 51 | 0.0 | 0.0 | 0.00 | 0.00 | 0.00 | 38 | 1016.5 | |
| 20260506043516 | 51 | 0.0 | 0.0 | 0.00 | 0.01 | 0.00 | 38 | 1016.4 | |
| 20260506042517 | 51 | 0.0 | 0.0 | 0.00 | 0.01 | 0.00 | 39 | 1016.4 | |
| 20260506041516 | 51 | 0.0 | 0.0 | 0.00 | 0.01 | 0.00 | 39 | 1016.2 | |
| 20260506040516 | 52 | 0.0 | 0.0 | 0.00 | 0.01 | 0.00 | 39 | 1016.1 | |
| 20260506035517 | 52 | 0.0 | 0.0 | 0.00 | 0.01 | 0.00 | 39 | 1016.3 | |
| 20260506034517 | 52 | 0.0 | 0.0 | 0.00 | 0.01 | 0.00 | 38 | 1016.2 | |
| 20260506033516 | 52 | 0.0 | 0.0 | 0.00 | 0.01 | 0.00 | 38 | 1016.1 | |
| 20260506032516 | 52 | 0.0 | 0.0 | 0.00 | 0.01 | 0.00 | 37 | 1016.0 | |
| 20260506031536 | 52 | 0.0 | 0.0 | 0.00 | 0.01 | 0.00 | 38 | 1015.8 | |
| 20260506030516 | 52 | 0.0 | 0.0 | 0.00 | 0.01 | 0.00 | 37 | 1015.7 | |
| 20260506025516 | 53 | 0.0 | 0.0 | 0.00 | 0.01 | 0.00 | 37 | 1015.7 | |
| 20260506024516 | 53 | 0.0 | 0.0 | 0.00 | 0.01 | 0.00 | 37 | 1015.4 | |
| 20260506023536 | 53 | 0.0 | 0.0 | 0.00 | 0.01 | 0.00 | 37 | 1015.3 | |
| 20260506022516 | 53 | 0.0 | 0.0 | 0.00 | 0.01 | 0.00 | 37 | 1015.2 | |
| 20260506021516 | 53 | 0.0 | 0.0 | 0.00 | 0.01 | 0.00 | 37 | 1014.9 | |
| 20260506020516 | 53 | 0.0 | 0.0 | 0.00 | 0.01 | 0.00 | 37 | 1014.9 | |
| 20260506015516 | 54 | 0.0 | 0.0 | 0.00 | 0.01 | 0.00 | 37 | 1014.8 | |
| 20260506014516 | 54 | 0.0 | 0.0 | 0.00 | 0.01 | 0.00 | 37 | 1014.8 | |
| 20260506013516 | 54 | 0.0 | 0.0 | 0.00 | 0.01 | 0.00 | 37 | 1014.6 | |
| 20260506012516 | 54 | 0.0 | 0.0 | 0.00 | 0.01 | 0.00 | 37 | 1014.5 | |
| 20260506011516 | 54 | 0.0 | 0.0 | 0.00 | 0.01 | 0.00 | 37 | 1014.4 | |
| 20260506010516 | 55 | 0.0 | 0.0 | 0.00 | 0.01 | 0.00 | 36 | 1014.1 | |
| 20260506005516 | 55 | 0.0 | 0.0 | 0.00 | 0.01 | 0.00 | 36 | 1014.1 | |
| 20260506004516 | 55 | 0.0 | 0.0 | 0.00 | 0.01 | 0.00 | 36 | 1014.1 | |
| 20260506003516 | 55 | 0.0 | 0.0 | 0.00 | 0.01 | 0.00 | 36 | 1013.9 | |
| 20260506002516 | 55 | 0.0 | 0.0 | 0.00 | 0.01 | 0.00 | 36 | 1013.7 | |
| 20260506001556 | 55 | 0.0 | 0.0 | 0.00 | 0.01 | 0.00 | 36 | 1013.7 | |
| 20260506000537 | 56 | 0.0 | 0.0 | 0.00 | 0.01 | 0.00 | 35 | 1013.8 | |
| 20260505235516 | 56 | 0.0 | 0.0 | 0.00 | 0.01 | 0.00 | 35 | 1013.7 | |
| 20260505234516 | 57 | 0.0 | 0.0 | 0.00 | 0.01 | 0.00 | 35 | 1013.6 | |
| 20260505233536 | 57 | 0.0 | 0.0 | 0.00 | 0.01 | 0.00 | 35 | 1013.5 | |
| 20260505232516 | 57 | 0.0 | 0.0 | 0.00 | 0.01 | 0.00 | 35 | 1013.3 | |
| 20260505231556 | 57 | 0.0 | 0.0 | 0.00 | 0.01 | 0.00 | 34 | 1013.3 |